Simultaneous Nadir Overpasses (SNOs) Predictions

Prediction of SNOs between AQUA and GOES-15 Satellite Orbit:

Table of predicted SNOs for the next 14.0 days since TLE Epoch: 11/21/2020
Index Date Time (AQUA) AQUA Lat,Lon GOES-15 Lat,Lon Distance(km) Time Diff (sec)
1 11/21/2020 09:48:45 -0.98,-123.47 -0.07,-127.63 472.97 80
2 11/21/2020 22:10:07 -0.19,-128.65 0.05,-127.63 116.26 80
3 11/23/2020 21:57:57 0.47,-125.70 0.06,-127.70 227.27 80
4 11/24/2020 10:19:13 0.62,-130.86 -0.03,-127.73 355.45 80
5 11/26/2020 10:07:02 0.01,-127.90 -0.03,-127.80 12.14 80
6 11/28/2020 09:54:52 -0.67,-124.96 -0.04,-127.87 331.15 80
7 11/28/2020 22:16:15 -0.50,-130.14 0.01,-127.88 257.64 80
8 11/30/2020 22:04:05 0.19,-127.20 0.01,-127.94 84.50 80
9 12/01/2020 10:25:20 0.96,-132.34 0.02,-127.96 499.27 80
10 12/02/2020 21:51:54 0.82,-124.24 0.02,-127.99 425.92 80
11 12/03/2020 10:13:09 0.33,-129.39 0.01,-128.01 157.91 80
